N8XSF-1 Weather Reports


time (UTC)temp
F
wind
direction
speed
knots
gust
knots
rain 1hr
in
rain 24hr
in
rain mn
in
humidity
%
barometer
mb
20260502233834 47 263 2.6 7.0 0.00 0.01 0.00 47 1014.0
20260502233349 47 258 3.5 7.0 0.00 0.01 0.00 46 1014.0
20260502232820 47 286 0.0 5.2 0.00 0.01 0.00 48 1014.0
20260502232318 47 286 0.0 7.8 0.00 0.01 0.00 47 1014.0
20260502231824 48 292 1.7 12.2 0.00 0.01 0.00 47 1014.1
20260502231339 48 257 5.2 12.2 0.00 0.01 0.00 46 1014.1
20260502230815 48 258 4.3 8.7 0.00 0.01 0.00 46 1014.1
20260502230341 48 251 2.6 8.7 0.00 0.01 0.00 46 1014.0
20260502225833 48 261 2.6 10.4 0.00 0.01 0.00 46 1014.0
20260502225344 49 257 1.7 7.8 0.00 0.01 0.00 46 1014.0
20260502224814 49 282 0.0 4.3 0.00 0.01 0.00 47 1014.1
20260502224329 49 283 0.0 6.1 0.00 0.01 0.00 47 1014.1
20260502223819 48 283 0.0 6.1 0.00 0.01 0.00 46 1014.1
20260502223329 48 294 0.9 7.8 0.00 0.01 0.00 47 1014.1
20260502222818 48 281 1.7 7.0 0.00 0.01 0.00 47 1014.1
20260502222314 48 283 1.7 7.0 0.00 0.01 0.00 47 1014.1
20260502221828 48 270 1.7 9.6 0.00 0.01 0.00 48 1014.2
20260502221348 48 273 6.1 9.6 0.00 0.01 0.00 46 1014.2
20260502220825 48 271 1.7 8.7 0.00 0.01 0.00 46 1014.2
20260502220329 48 247 1.7 8.7 0.00 0.01 0.00 47 1014.1
20260502215823 48 304 0.9 7.0 0.00 0.01 0.00 47 1014.1
20260502215313 48 297 1.7 6.1 0.00 0.01 0.00 46 1014.1
20260502214821 48 276 0.0 6.1 0.00 0.01 0.00 47 1014.1
20260502214332 48 281 0.0 7.0 0.00 0.01 0.00 48 1014.1
20260502213821 48 281 0.9 10.4 0.00 0.01 0.00 46 1014.1
20260502213359 48 242 7.0 10.4 0.00 0.01 0.00 45 1014.1
20260502212843 48 264 2.6 7.8 0.00 0.01 0.00 48 1014.1
20260502212329 48 304 0.0 8.7 0.00 0.01 0.00 46 1014.1
20260502211821 48 291 2.6 9.6 0.00 0.01 0.00 45 1014.1
20260502211328 48 281 2.6 7.8 0.00 0.01 0.00 46 1014.1
20260502210826 48 305 0.9 7.8 0.00 0.01 0.00 45 1014.1
20260502210315 48 290 1.7 9.6 0.00 0.01 0.00 47 1014.2
20260502205827 48 268 4.3 9.6 0.00 0.01 0.00 47 1014.2
20260502205317 48 270 0.9 8.7 0.00 0.01 0.00 47 1014.2
20260502204833 48 267 4.3 8.7 0.00 0.01 0.00 47 1014.2
20260502204324 48 257 1.7 8.7 0.00 0.01 0.00 48 1014.2
20260502203837 48 266 3.5 7.0 0.00 0.01 0.00 48 1014.2
20260502203331 48 272 0.9 8.7 0.00 0.01 0.00 48 1014.4
20260502202819 48 271 1.7 9.6 0.00 0.01 0.00 46 1014.4
20260502202349 48 269 3.5 9.6 0.00 0.01 0.00 45 1014.4
20260502201816 49 261 1.7 11.3 0.00 0.01 0.00 45 1014.5
20260502201340 49 244 6.1 13.9 0.00 0.01 0.00 45 1014.5
20260502200825 49 257 7.8 13.9 0.00 0.01 0.00 46 1014.5
20260502200334 48 269 4.3 8.7 0.00 0.01 0.00 47 1014.6
20260502195820 48 277 4.3 8.7 0.00 0.01 0.00 46 1014.6
20260502195323 48 281 2.6 7.0 0.00 0.01 0.00 46 1014.6
20260502194831 48 298 2.6 7.0 0.00 0.01 0.00 46 1014.7
20260502194326 48 293 1.7 9.6 0.00 0.01 0.00 47 1014.7
20260502193832 48 252 4.3 9.6 0.00 0.01 0.00 46 1014.7
20260502193337 48 298 1.7 7.8 0.00 0.01 0.00 47 1014.9
20260502192831 48 272 1.7 6.1 0.00 0.01 0.00 50 1014.9
20260502192327 47 271 0.9 7.8 0.00 0.01 0.00 48 1014.9
20260502191851 48 271 2.6 7.8 0.00 0.01 0.00 48 1015.0
20260502191339 48 242 1.7 5.2 0.00 0.01 0.00 48 1015.0
20260502190832 48 238 1.7 7.0 0.00 0.01 0.00 49 1015.0
20260502190320 47 238 3.5 7.0 0.00 0.01 0.00 48 1015.0
20260502185824 48 286 2.6 9.6 0.00 0.01 0.00 47 1015.0
20260502185312 48 261 4.3 9.6 0.00 0.01 0.00 47 1015.0
20260502184822 47 228 3.5 10.4 0.00 0.01 0.00 50 1015.1
20260502184345 47 233 7.0 9.6 0.00 0.01 0.00 49 1015.1
20260502183850 47 284 2.6 9.6 0.00 0.01 0.00 50 1015.1
20260502183345 47 272 3.5 8.7 0.00 0.01 0.00 51 1015.3
20260502182843 47 253 0.9 7.8 0.00 0.01 0.00 50 1015.3
20260502182315 47 279 2.6 9.6 0.00 0.01 0.00 49 1015.3
20260502181832 47 264 4.3 9.6 0.00 0.01 0.00 51 1015.4
20260502181345 47 311 1.7 6.1 0.00 0.01 0.00 48 1015.4
20260502180858 47 262 1.7 7.8 0.00 0.01 0.00 51 1015.4
20260502180330 47 234 3.5 11.3 0.00 0.01 0.00 51 1015.5
20260502170324 45 257 5.2 9.6 0.00 0.01 0.00 53 1015.8
20260502164330 45 273 0.0 5.2 0.00 0.01 0.00 54 1016.0
20260502163815 45 273 0.0 6.1 0.00 0.01 0.00 55 1016.0
20260502163322 45 268 1.7 6.1 0.00 0.01 0.00 55 1016.0
20260502162842 45 258 0.0 7.0 0.00 0.01 0.00 58 1016.0
20260502162326 45 258 1.7 9.6 0.00 0.01 0.00 58 1016.0
20260502161815 45 259 3.5 9.6 0.00 0.01 0.00 57 1016.0
20260502161319 45 309 2.6 7.8 0.00 0.01 0.00 57 1016.0
20260502160826 45 262 0.9 7.0 0.00 0.01 0.00 56 1016.0
20260502160318 45 248 0.0 4.3 0.00 0.01 0.00 55 1015.9
20260502151834 45 272 0.0 4.3 0.00 0.01 0.00 57 1015.8
20260502151325 45 271 0.0 10.4 0.00 0.01 0.00 60 1015.8
20260502150836 45 278 1.7 7.0 0.00 0.01 0.00 57 1015.8
20260502150321 45 278 0.0 7.0 0.00 0.02 0.00 60 1015.6
20260502130317 42 271 0.9 6.1 0.00 0.03 0.00 73 1015.4
20260502123813 40 265 2.6 5.2 0.00 0.03 0.00 82 1015.5
20260502123331 40 265 0.9 4.3 0.00 0.03 0.00 82 1015.5
20260502122820 39 265 0.0 3.5 0.00 0.03 0.00 82 1015.5
20260502122324 39 265 0.9 3.5 0.00 0.03 0.00 83 1015.5
20260502121833 39 265 0.9 3.5 0.00 0.03 0.00 83 1015.4
20260502121324 39 265 0.0 1.7 0.00 0.03 0.00 83 1015.4
20260502120818 38 265 0.0 1.7 0.00 0.03 0.00 83 1015.4
20260502120325 38 265 0.0 0.0 0.00 0.03 0.00 83 1015.3
20260502115815 37 265 0.0 0.0 0.00 0.03 0.00 83 1015.3
20260502115329 37 265 0.0 0.0 0.00 0.03 0.00 83 1015.3
20260502114820 37 265 0.0 0.0 0.00 0.03 0.00 83 1015.3
20260502114403 37 265 0.0 0.0 0.00 0.03 0.00 83 1015.3
20260502113826 38 265 0.0 0.0 0.00 0.03 0.00 83 1015.3
20260502113310 38 265 0.0 0.0 0.00 0.03 0.00 83 1015.1
20260502112837 38 265 0.0 0.0 0.00 0.03 0.00 82 1015.1
20260502112330 38 265 0.0 0.0 0.00 0.03 0.00 82 1015.1
20260502111836 38 265 0.0 0.0 0.00 0.03 0.00 82 1015.0
20260502111324 38 265 0.0 0.0 0.00 0.03 0.00 82 1015.0
20260502110814 38 265 0.0 0.0 0.00 0.03 0.00 81 1015.0
20260502110321 38 265 0.0 0.0 0.00 0.09 0.00 81 1014.8
20260502105815 38 265 0.0 0.0 0.00 0.09 0.00 81 1014.8
20260502105326 38 265 0.0 0.0 0.00 0.09 0.00 81 1014.8
20260502104820 38 265 0.0 0.0 0.00 0.09 0.00 80 1014.7
20260502104314 38 265 0.0 0.0 0.00 0.09 0.00 81 1014.7
20260502103825 38 265 0.0 0.0 0.00 0.09 0.00 80 1014.7
20260502103315 39 265 0.0 0.0 0.00 0.09 0.00 80 1014.7
20260502102828 39 265 0.0 0.0 0.00 0.09 0.00 80 1014.7
20260502102318 39 265 0.0 0.0 0.00 0.09 0.00 80 1014.7
20260502101814 39 265 0.0 0.0 0.00 0.09 0.00 80 1014.7
20260502101330 39 265 0.0 0.0 0.00 0.09 0.00 80 1014.7
20260502100852 39 265 0.0 0.0 0.00 0.09 0.00 80 1014.7
20260502100340 39 265 0.0 0.0 0.00 0.14 0.00 80 1014.6
20260502091332 39 265 0.0 0.0 0.00 0.14 0.00 79 1014.4
20260502090816 39 265 0.0 4.3 0.00 0.14 0.00 79 1014.4
20260502090327 39 265 0.0 4.3 0.00 0.15 0.00 79 1014.5
20260502071337 40 262 0.9 7.0 0.00 0.16 0.00 74 1014.0
20260502070837 40 262 2.6 7.8 0.00 0.16 0.00 74 1014.0
20260502070323 40 261 1.7 7.8 0.00 0.19 0.00 74 1014.0
20260502065830 40 261 3.5 7.8 0.00 0.19 0.00 74 1014.0
20260502065316 40 259 2.6 7.8 0.00 0.19 0.00 74 1014.0
20260502064821 40 259 0.9 7.8 0.00 0.19 0.00 74 1014.1
20260502064332 41 269 3.5 9.6 0.00 0.19 0.00 74 1014.1
20260502063822 41 259 5.2 9.6 0.00 0.19 0.00 75 1014.1
20260502063333 41 254 4.3 8.7 0.00 0.19 0.00 75 1014.1
20260502062850 41 257 3.5 8.7 0.00 0.19 0.00 76 1014.1
20260502062319 41 263 1.7 7.8 0.00 0.19 0.00 77 1014.1
20260502061847 41 273 2.6 9.6 0.00 0.19 0.00 77 1014.1
20260502061330 41 257 3.5 7.8 0.00 0.19 0.00 77 1014.1
20260502060821 41 263 3.5 7.0 0.00 0.19 0.00 77 1014.1
20260502060340 41 261 1.7 5.2 0.00 0.19 0.00 77 1014.2
20260502055828 41 261 2.6 7.0 0.00 0.19 0.00 77 1014.2
20260502055335 41 261 0.9 7.0 0.00 0.19 0.00 77 1014.2
20260502054820 41 259 1.7 7.8 0.00 0.19 0.00 77 1014.2
20260502054326 41 260 3.5 7.8 0.00 0.19 0.00 77 1014.2
20260502053811 41 261 1.7 6.1 0.00 0.19 0.00 77 1014.2
20260502053318 41 261 0.9 4.3 0.00 0.19 0.00 78 1014.2
20260502052843 41 261 0.0 4.3 0.00 0.19 0.00 78 1014.2
20260502052328 41 261 0.0 4.3 0.00 0.19 0.00 78 1014.2
20260502051811 41 261 0.0 5.2 0.00 0.19 0.00 78 1014.4
20260502051320 41 261 0.9 7.0 0.00 0.19 0.00 79 1014.4
20260502050831 41 270 0.9 6.1 0.00 0.19 0.00 80 1014.4
20260502050320 41 270 2.6 6.1 0.00 0.19 0.00 80 1014.4
20260502045839 41 284 0.0 3.5 0.00 0.19 0.00 80 1014.4
20260502045344 41 284 0.0 3.5 0.00 0.19 0.00 81 1014.4
20260502044832 41 284 0.0 6.1 0.00 0.19 0.00 81 1014.3
20260502044318 41 284 1.7 6.1 0.00 0.19 0.00 81 1014.3
20260502043831 41 285 0.9 4.3 0.00 0.19 0.00 82 1014.3
20260502043317 41 285 0.0 3.5 0.00 0.19 0.00 82 1014.4
20260502042825 41 285 0.0 1.7 0.00 0.19 0.00 82 1014.4
20260502042316 41 285 0.0 1.7 0.00 0.19 0.00 82 1014.4
20260502041834 42 285 0.0 1.7 0.00 0.19 0.00 82 1014.2
20260502041342 42 285 0.0 0.9 0.00 0.19 0.00 82 1014.2
20260502040827 42 285 0.0 1.7 0.00 0.19 0.00 81 1014.2
20260502040314 42 285 0.0 1.7 0.00 0.19 0.19 81 1014.0
20260502035827 42 285 0.0 0.0 0.00 0.19 0.19 81 1014.0
20260502035318 42 285 0.0 0.0 0.00 0.19 0.19 81 1014.0
20260502034824 42 285 0.0 0.0 0.00 0.19 0.19 81 1014.0
20260502034321 43 285 0.0 0.0 0.00 0.19 0.19 81 1014.0
20260502033850 43 285 0.0 0.0 0.00 0.19 0.19 81 1014.0
20260502033320 43 285 0.0 0.0 0.00 0.19 0.19 81 1014.0
20260502032818 43 285 0.0 0.0 0.00 0.19 0.19 81 1014.0
20260502032315 43 285 0.0 0.0 0.00 0.19 0.19 81 1014.0
20260502031859 43 285 0.0 0.0 0.00 0.19 0.19 81 1014.0
20260502031326 43 285 0.0 0.9 0.00 0.19 0.19 81 1014.0
20260502030822 43 285 0.0 0.9 0.00 0.19 0.19 81 1014.0
20260502030350 43 285 0.0 0.9 0.00 0.19 0.19 81 1013.9
20260502025827 43 285 0.0 0.9 0.00 0.19 0.19 81 1013.9
20260502025324 43 285 0.0 0.0 0.00 0.19 0.19 81 1013.9
20260502024849 43 285 0.0 0.0 0.00 0.19 0.19 81 1013.9
20260502024338 43 285 0.0 0.0 0.00 0.19 0.19 81 1013.9
20260502023834 43 285 0.0 0.0 0.00 0.19 0.19 80 1013.9
20260502023323 43 285 0.0 0.0 0.00 0.19 0.19 80 1013.7
20260502022830 43 285 0.0 0.0 0.00 0.19 0.19 80 1013.7
20260502022323 43 285 0.0 0.0 0.00 0.19 0.19 80 1013.7
20260502021848 43 285 0.0 0.0 0.00 0.19 0.19 80 1013.5
20260502021315 43 285 0.0 0.0 0.00 0.19 0.19 80 1013.5
20260502020827 43 285 0.0 0.0 0.00 0.19 0.19 80 1013.5
20260502020347 43 285 0.0 0.0 0.00 0.19 0.19 80 1013.4
20260502015835 43 285 0.0 0.0 0.00 0.19 0.19 80 1013.4
20260502015320 43 285 0.0 4.3 0.00 0.19 0.19 81 1013.4
20260502014826 43 285 0.9 4.3 0.00 0.19 0.19 81 1013.2
20260502014317 43 285 0.0 0.0 0.00 0.19 0.19 81 1013.2
20260502013832 43 285 0.0 3.5 0.00 0.19 0.19 81 1013.2
20260502013323 43 285 0.0 0.0 0.00 0.19 0.19 81 1013.0
20260502012841 43 285 0.0 0.0 0.00 0.19 0.19 81 1013.0
20260502012316 43 285 0.0 0.0 0.00 0.19 0.19 81 1013.0
20260502011816 43 285 0.0 0.0 0.00 0.19 0.19 80 1012.9
20260502011322 43 285 0.0 0.0 0.00 0.19 0.19 80 1012.9
20260502010827 43 285 0.0 0.0 0.00 0.19 0.19 80 1012.9
20260502010315 43 285 0.0 0.0 0.00 0.19 0.19 79 1012.8
20260502005824 43 285 0.0 0.0 0.00 0.19 0.19 79 1012.8
20260502005324 43 285 0.0 0.0 0.00 0.19 0.19 79 1012.8
20260502004811 44 285 0.0 0.0 0.00 0.19 0.19 79 1012.7
20260502004322 44 285 0.0 0.0 0.01 0.19 0.19 78 1012.7
20260502003832 44 285 0.0 0.0 0.01 0.19 0.19 78 1012.7
20260502003326 44 285 0.0 0.0 0.01 0.19 0.19 78 1012.6
20260502002833 44 285 0.0 0.0 0.01 0.19 0.19 78 1012.6
20260502002324 44 285 0.0 0.9 0.01 0.19 0.19 77 1012.6
20260502001836 45 285 0.0 3.5 0.01 0.19 0.19 78 1012.7
20260502001332 44 285 0.0 6.1 0.01 0.19 0.19 78 1012.7
20260502000842 44 285 0.9 7.8 0.01 0.19 0.19 77 1012.7
20260502000327 45 283 1.7 7.8 0.01 0.19 0.19 78 1012.5
20260501235816 45 292 3.5 7.8 0.01 0.19 0.19 77 1012.5
20260501235314 45 280 1.7 20.0 0.01 0.19 0.19 75 1012.5
20260501234826 46 288 6.1 20.0 0.01 0.19 0.19 73 1012.1
20260501234339 47 267 11.3 17.4 0.00 0.18 0.18 70 1012.1